Location: Dompnac
(44.5644°N, 4.1026°E)
Time: 10:10:43
(UTC+00:00)

Cosmos 2026 Rocket - Pass Details

Date: 17 January 2021
Orbit: 940 x 1000 km, 82.9° (Epoch: 26 February)

Event Time Altitude Azimuth Distance (km) Brightness Sun altitude
Rises 06:34:00 0° 350° (N) 3,696 6.7 -7.5°
Reaches altitude 10° 06:36:30 10° 350° (N) 2,752 6.1 -7.1°
Maximum altitude 06:42:50 80° 264° (W) 1,014 4.1 -6.1°
Drops below altitude 10° 06:49:11 10° 179° (S) 2,760 6.7 -5.1°
Sets 06:51:42 0° 178° (S) 3,707 7.4 -4.6°
